Location: *
(49.8044°N, 4.0558°E)
Time: 23:24:36
(UTC+00:00)

Cosmos 1076 Rocket - Pass Details

Date: 09 April 2020
Orbit: 590 x 612 km, 82.5° (Epoch: 27 May)

Event Time Altitude Azimuth Distance (km) Brightness Sun altitude
Rises 19:37:42 0° 357° (N) 2,850 7.4 -11.3°
Reaches altitude 10° 19:40:07 10° 7° (N) 1,946 6.4 -11.6°
Maximum altitude 19:43:59 32° 72° (ENE) 1,043 4.4 -12.2°
Enters shadow 19:46:21 19° 122° (ESE) 1,448 4.8 -12.5°
